Regional Weather Roundup
Issued by NWS

Home | Current Version | Previous Version | Graphics & Text | Print | Product List | Glossary On
Versions: 1 2 3 4 5 6 7 8 9 10 11 12 13 14 15 16 17 18 19 20 21 22 23 24 25 26 27 28 29 30 31 32 33 34 35 36 37 38 39 40 41 42 43 44 45 46 47 48 49 50
751
ASUS43 KLOT 230608
RWRIL

ILLINOIS REGIONAL WEATHER ROUNDUP
NATIONAL WEATHER SERVICE CHICAGO/ROMEOVILLE IL
1200 AM CST TUE JAN 23 2018

NOTE: "FAIR" INDICATES FEW OR NO CLOUDS BELOW 12,000 FEET WITH NO
SIGNIFICANT WEATHER AND/OR OBSTRUCTIONS TO VISIBILITY.

* THESE STATIONS ARE NOT UNDER NWS QUALITY CONTROL. THEY ALSO MAY NOT
  REPORT WEATHER SUCH AS PRECIPITATION OR FOG.

ILZ001-002-007-009-015-016-024-230700-
NORTHWEST ILLINOIS

CITY           SKY/WX    TMP DP  RH WIND       PRES   REMARKS
MOLINE         CLOUDY    33  31  92 W5        29.53R WCI  29
6HR MIN TEMP:  29; 6HR MAX TEMP:  41;

STERLING*      MOCLDY    32  30  92 SW6       29.53R WCI  26
SAVANNA*       DRIZZLE   37  33  87 W8        29.52S WCI  30
$$

ILZ003-004-008-010-011-017-018-230700-
NORTH CENTRAL ILLINOIS

CITY           SKY/WX    TMP DP  RH WIND       PRES   REMARKS
ROCKFORD       LGT RAIN  36  33  89 W6        29.51S WCI  31
6HR MIN TEMP:  36; 6HR MAX TEMP:  41; 6HR PCP:  0.14;

FREEPORT*      CLOUDY    35  34  97 W6        29.52R WCI  29
ROCHELLE*      CLOUDY    34  32  92 SW10      29.51S WCI  26
DE KALB*       CLOUDY    36  32  86 SW10      29.50S WCI  28
PERU*          FAIR      32  29  88 SW9       29.52F WCI  24
$$

ILZ005-006-012>014-019>023-230700-
NORTHEAST ILLINOIS

CITY           SKY/WX    TMP DP  RH WIND       PRES   REMARKS
CHICAGO-OHARE  CLOUDY    39  31  72 SW13      29.50R WCI  31
6HR MIN TEMP:  39; 6HR MAX TEMP:  49; 6HR PCP:  0.01;

CHICAGO-MIDWAY FAIR      37  32  82 SW8       29.51S WCI  31
6HR MIN TEMP:  37; 6HR MAX TEMP:  52; 6HR PCP:  0.02;

AURORA         FAIR      35  30  82 SW9       29.51S WCI  28
6HR MIN TEMP:  35; 6HR MAX TEMP:  45; 6HR PCP:  0.07;

LANSING*       FAIR      35  33  93 SW6       29.52F WCI  30
JOLIET*        FAIR      36  32  86 SW3       29.52F
WAUKEGAN       CLOUDY    37  35  92 SW5       29.47S WCI  33
6HR MIN TEMP:  37; 6HR MAX TEMP:  44; 6HR PCP:  0.03;

DUPAGE AIRPORT CLOUDY    35  32  88 SW10      29.50R WCI  27
6HR MIN TEMP:  35; 6HR MAX TEMP:  49; 6HR PCP:  0.10;

KANKAKEE*      CLOUDY   N/A N/A N/A SW5       29.55F
WHEELING       CLOUDY    40  34  79 SW8       29.50S
6HR MIN TEMP:  40; 6HR MAX TEMP:  50; 6HR PCP:  0.02;

MORRIS*        FAIR      35  32  88 SW8       29.51F WCI  29
ROMEOVILLE*    FAIR      35  31  87 SW8       29.51F WCI  28
NORTHERLY ISL    N/A     39  31  73 W6          N/A  WCI  35
$$

LMZ740>746-230700-
SOUTHERN LAKE MICHIGAN

STATION/POSITION SKY/WX   TEMP    WIND        PRES    VSBY  WAVE
                          AIR SEA DIR/SP/G                  HT/PER
                          (F)     (DEG/KT/KT) (MB)    (MI)  (FT/S)
HARRISON CRIB              41     220/ 17/ 22   N/A
BURNHAM HARBOR             39     220/  7/ 10   N/A
CALUMET HARBOR             38     210/  7/ 10  999.0F
BURNS HARBOR               40     220/ 12/ 17 1000.3F
MICHIGAN CITY              39     200/ 17/ 19   N/A
$$

ILZ025>027-034>036-040-047-049-050-058-095>099-230700-
WEST-CENTRAL ILLINOIS

CITY           SKY/WX    TMP DP  RH WIND       PRES   REMARKS
QUINCY         MIX PCPN  33  32  96 W12       29.57R WCI  24
GALESBURG*     CLOUDY    35  35 100 SW7       29.55S WCI  29
MACOMB*        LGT RAIN  33  33  99 W7        29.58R WCI  27
JACKSONVILLE*  LGT SNOW  33  31  94 SW15      29.58S WCI  22
PITTSFIELD*    LGT RAIN  33  32  96 SW10      29.59R WCI  25
$$

ILZ028>032-037-038-041>044-048-051>054-059>061-230700-
CENTRAL ILLINOIS

CITY           SKY/WX    TMP DP  RH WIND       PRES   REMARKS
PONTIAC        CLOUDY    38  37  95 SW10      29.55S WCI  31
BLOOMINGTON    LGT RAIN  36  34  92 SW12      29.55S WCI  28
DECATUR        CLOUDY    39  33  79 SW15G23   29.57S WCI  31
PEORIA         LGT RAIN  35  34  96 SW8       29.55S FOG     WCI  29
6HR MIN TEMP:  35; 6HR MAX TEMP:  43; 6HR PCP:  0.08;

LACON*         CLOUDY    35  33  90 SW3       29.53S
LINCOLN*       LGT RAIN  38  36  92 W5        29.57S WCI  34
SPRINGFIELD    LGT SNOW  36  33  89 W20G28    29.58R WCI  25
6HR MIN TEMP:  36; 6HR MAX TEMP:  44; 6HR PCP:  0.02;

TAYLORVILLE    DRIZZLE   35  31  83 SW20G25   29.59R WCI  25
6HR MIN TEMP:  35; 6HR MAX TEMP:  44;

$$

ILZ033-039-045-046-055>057-062-063-230700-
EAST-CENTRAL ILLINOIS

CITY           SKY/WX    TMP DP  RH WIND       PRES   REMARKS
CHAMPAIGN      LGT RAIN  38  33  82 SW13      29.57S WCI  30
DANVILLE*      MIX PCPN  38  33  84 SW7       29.54F WCI  32
RANTOUL*       DRIZZLE   39  35  85 W9        29.56F WCI  33
MATTOON        LGT RAIN  39  34  82 SW14G21   29.58R WCI  31
PARIS*         DRIZZLE   40  34  80 SW21      29.60S
$$

ILZ079-100>102-230700-
SOUTHWEST ILLINOIS

CITY           SKY/WX    TMP DP  RH WIND       PRES   REMARKS
ALTON          LGT SNOW  34  32  90 W17G31    29.64R WCI  24
BELLEVILLE     CLOUDY    37  27  65 SW16G24   29.64R WCI  28
CAHOKIA*       CLOUDY    38  26  62 SW12G28   29.65R WCI  30
SPARTA*        CLOUDY    38  30  74 W18       29.68S WCI  28
$$

ILZ064>066-069>071-074>076-080>082-084>086-088>090-092>094-230700-
SOUTH-CENTRAL ILLINOIS

CITY           SKY/WX    TMP DP  RH WIND       PRES   REMARKS
CARBONDALE     CLOUDY    41  28  60 SW20G31   29.69R
6HR MIN TEMP:  41; 6HR MAX TEMP:  51; 6HR PCP: TRACE;

CAIRO*         CLOUDY    43  29  58 W18G29    29.75R
EFFINGHAM*     RAIN      39  35  86 S18G28    29.63S WCI  30
MARION         CLOUDY    41  28  58 SW9       29.70S
MT. VERNON     FAIR      38  30  73 SW18G24   29.67R WCI  28
CENTRALIA*     CLOUDY    37  34  89 SW12      29.65R WCI  30
SALEM*         CLOUDY    38  33  82 SW18G25   29.64S WCI  28
METROPOLIS*    CLOUDY    45  29  54 SW22G29   29.74R
$$

ILZ067-068-072-073-078-083-087-091-230700-
SOUTHEAST ILLINOIS

CITY           SKY/WX    TMP DP  RH WIND       PRES   REMARKS
LAWRENCEVILLE  CLOUDY    41  34  76 S9        29.63S
FLORA*         CLOUDY    40  36  84 SW15G24   29.65R
FAIRFIELD*     CLOUDY    40  30  66 SW16G22   29.66R
HARRISBURG*    CLOUDY    41  32  71 W16G22    29.70S
ROBINSON*      RAIN      39  33  77 SW7       29.63S WCI  34
CARMI*         LGT RAIN  38  35  87 SW22G35   29.69R WCI  28
$$

ABBREVIATIONS USED IN REMARKS
   TC - TEMPERATURE IN CELSIUS
  WCI - WIND CHILL INDEX
   HX - HEAT INDEX
  VSB - VISIBILITY
$$





USA.gov is the U.S. government's official web portal to all federal, state and local government web resources and services.